This is the latest recevied weather packets stored in our database for station/object KN6ETB-1. If no packets are shown the sender has not sent any weather packets the latest 10 day(s).
| Time | Temp. | Humidity | Pressure | Rain* | Wind** | Luminosity | Snow |
|---|---|---|---|---|---|---|---|
| 1777478654 | 16.67° C | 73% | 1016.1 hPa | 0 mm | - | 375 W/m² | - |
| 1777478351 | 16.11° C | 74% | 1016 hPa | 0 mm | - | 326 W/m² | - |
| 1777478047 | 16.11° C | 74% | 1016.2 hPa | 0 mm | - | 337 W/m² | - |
| 1777477743 | 15.56° C | 74% | 1016.1 hPa | 0 mm | - | 343 W/m² | - |
| 1777477439 | 16.11° C | 74% | 1016 hPa | 0 mm | - | 290 W/m² | - |
| 1777477136 | 15.56° C | 75% | 1016.1 hPa | 0 mm | - | 255 W/m² | - |
| 1777476833 | 15.56° C | 75% | 1016.1 hPa | 0 mm | - | 287 W/m² | - |
| 1777476530 | 15° C | 76% | 1016.1 hPa | 0 mm | - | 280 W/m² | - |
| 1777476226 | 15° C | 75% | 1016.2 hPa | 0 mm | - | 232 W/m² | - |
| 1777475922 | 15.56° C | 75% | 1016.3 hPa | 0 mm | - | 219 W/m² | - |
| 1777475619 | 15.56° C | 76% | 1015.9 hPa | 0 mm | - | 188 W/m² | - |
| 1777475315 | 15° C | 77% | 1016.1 hPa | 0 mm | - | 186 W/m² | - |
| 1777475010 | 14.44° C | 78% | 1016 hPa | 0 mm | - | 170 W/m² | - |
| 1777474707 | 13.89° C | 78% | 1016 hPa | 0 mm | - | 165 W/m² | - |
| 1777474403 | 14.44° C | 77% | 1015.9 hPa | 0 mm | - | 150 W/m² | - |
| 1777474100 | 14.44° C | 78% | 1015.9 hPa | 0 mm | - | 139 W/m² | - |
| 1777473798 | 13.89° C | 78% | 1015.9 hPa | 0 mm | - | 118 W/m² | - |
| 1777473495 | 14.44° C | 80% | 1015.8 hPa | 0 mm | - | 104 W/m² | - |
| 1777473190 | 13.33° C | 84% | 1016.1 hPa | 0 mm | - | 95 W/m² | - |
| 1777472887 | 12.22° C | 87% | 1015.9 hPa | 0 mm | - | 82 W/m² | - |
| 1777472583 | 11.67° C | 87% | 1015.8 hPa | 0 mm | - | 73 W/m² | - |
| 1777472280 | 11.67° C | 88% | 1015.8 hPa | 0 mm | - | 55 W/m² | - |
| 1777471976 | 11.11° C | 90% | 1015.9 hPa | 0 mm | - | 46 W/m² | - |
| 1777471673 | 10° C | 90% | 1015.8 hPa | 0 mm | - | 44 W/m² | - |
| 1777471370 | 10° C | 90% | 1015.7 hPa | 0 mm | - | 39 W/m² | - |
* Rain latest hour (hover to see other rain measurements)
** Current wind speed in m/s (hover to see current wind gust speed)